Time,TemperatureF,DewpointF,PressureIn,WindDirection,WindDirectionDegrees,WindSpeedMPH,WindSpeedGustMPH,Humidity,HourlyPrecipIn,Conditions,Clouds,dailyrainin,SolarRadiationWatts/m^2,SoftwareType,DateUTC
2013-06-14 01:22:00,35.0,31.0,-100.00,ENE,68,5.0,8.0,85,-99.99,,,0.00,1.000000,,2013-06-14 08:22:00,
2013-06-14 01:33:00,35.0,31.0,-100.00,ENE,68,5.0,8.0,85,-99.99,,,0.00,1.000000,,2013-06-14 08:33:00,
2013-06-14 01:43:00,35.0,31.0,-100.00,ENE,68,5.0,8.0,85,-99.99,,,0.00,1.000000,,2013-06-14 08:43:00,
2013-06-14 01:53:00,35.0,31.0,-100.00,ENE,68,5.0,8.0,85,-99.99,,,0.00,1.000000,,2013-06-14 08:53:00,
2013-06-14 02:22:00,35.0,32.0,-100.00,NE,54,4.0,6.0,88,0.00,,,0.00,1.000000,,2013-06-14 09:22:00,
2013-06-14 02:33:00,35.0,32.0,-100.00,NE,54,4.0,6.0,88,0.00,,,0.00,1.000000,,2013-06-14 09:33:00,
2013-06-14 02:43:00,35.0,32.0,-100.00,NE,54,4.0,6.0,88,0.00,,,0.00,1.000000,,2013-06-14 09:43:00,
2013-06-14 02:52:00,35.0,32.0,-100.00,NE,54,4.0,6.0,88,0.00,,,0.00,1.000000,,2013-06-14 09:52:00,
2013-06-14 03:22:00,32.0,30.0,-100.00,ENE,71,4.0,6.0,93,0.00,,,0.00,1.000000,,2013-06-14 10:22:00,
2013-06-14 03:34:00,32.0,30.0,-100.00,ENE,71,4.0,6.0,93,0.00,,,0.00,1.000000,,2013-06-14 10:34:00,
2013-06-14 03:43:00,32.0,30.0,-100.00,ENE,71,4.0,6.0,93,0.00,,,0.00,1.000000,,2013-06-14 10:43:00,
2013-06-14 03:52:00,32.0,30.0,-100.00,ENE,71,4.0,6.0,93,0.00,,,0.00,1.000000,,2013-06-14 10:52:00,
2013-06-14 04:22:00,32.0,30.0,-100.00,NE,52,6.0,8.0,94,0.00,,,0.00,1.000000,,2013-06-14 11:22:00,
2013-06-14 04:32:00,32.0,30.0,-100.00,NE,52,6.0,8.0,94,0.00,,,0.00,1.000000,,2013-06-14 11:32:00,
2013-06-14 04:43:00,32.0,30.0,-100.00,NE,52,6.0,8.0,94,0.00,,,0.00,1.000000,,2013-06-14 11:43:00,
2013-06-14 04:52:00,32.0,30.0,-100.00,NE,52,6.0,8.0,94,0.00,,,0.00,1.000000,,2013-06-14 11:52:00,
2013-06-14 05:32:00,31.0,29.0,-100.00,ENE,61,4.0,8.0,92,0.00,,,0.00,1.000000,,2013-06-14 12:32:00,
2013-06-14 05:43:00,31.0,29.0,-100.00,ENE,61,4.0,8.0,92,0.00,,,0.00,1.000000,,2013-06-14 12:43:00,
2013-06-14 05:52:00,31.0,29.0,-100.00,ENE,61,4.0,8.0,92,0.00,,,0.00,1.000000,,2013-06-14 12:52:00,
2013-06-14 06:22:00,31.0,30.0,-100.00,NE,45,6.0,8.0,96,0.00,,,0.00,6.000000,,2013-06-14 13:22:00,
2013-06-14 06:33:00,31.0,30.0,-100.00,NE,45,6.0,8.0,96,0.00,,,0.00,6.000000,,2013-06-14 13:33:00,
2013-06-14 06:43:00,31.0,30.0,-100.00,NE,45,6.0,8.0,96,0.00,,,0.00,6.000000,,2013-06-14 13:43:00,
2013-06-14 06:52:00,31.0,30.0,-100.00,NE,45,6.0,8.0,96,0.00,,,0.00,6.000000,,2013-06-14 13:52:00,
2013-06-14 07:22:00,38.0,33.0,-100.00,NE,40,4.0,9.0,81,0.00,,,0.00,139.000000,,2013-06-14 14:22:00,
2013-06-14 07:34:00,38.0,33.0,-100.00,NE,40,4.0,9.0,81,0.00,,,0.00,139.000000,,2013-06-14 14:34:00,
2013-06-14 07:43:00,38.0,33.0,-100.00,NE,40,4.0,9.0,81,0.00,,,0.00,139.000000,,2013-06-14 14:43:00,
2013-06-14 07:52:00,38.0,33.0,-100.00,NE,40,4.0,9.0,81,0.00,,,0.00,139.000000,,2013-06-14 14:52:00,
2013-06-14 08:23:00,43.0,34.0,-100.00,NNE,32,6.0,10.0,70,0.00,,,0.00,313.000000,,2013-06-14 15:23:00,
2013-06-14 08:33:00,43.0,34.0,-100.00,NNE,32,6.0,10.0,70,0.00,,,0.00,313.000000,,2013-06-14 15:33:00,
2013-06-14 08:43:00,43.0,34.0,-100.00,NNE,32,6.0,10.0,70,0.00,,,0.00,313.000000,,2013-06-14 15:43:00,
2013-06-14 08:52:00,43.0,34.0,-100.00,NNE,32,6.0,10.0,70,0.00,,,0.00,313.000000,,2013-06-14 15:52:00,
2013-06-14 09:32:00,49.0,35.0,-100.00,NNE,23,6.0,10.0,58,0.00,,,0.00,503.000000,,2013-06-14 16:32:00,
2013-06-14 09:43:00,49.0,35.0,-100.00,NNE,23,6.0,10.0,58,0.00,,,0.00,503.000000,,2013-06-14 16:43:00,
2013-06-14 09:52:00,49.0,35.0,-100.00,NNE,23,6.0,10.0,58,0.00,,,0.00,503.000000,,2013-06-14 16:52:00,
2013-06-14 10:22:00,54.0,33.0,-100.00,NE,36,6.0,11.0,45,0.00,,,0.00,688.000000,,2013-06-14 17:22:00,
2013-06-14 10:34:00,54.0,33.0,-100.00,NE,36,6.0,11.0,45,0.00,,,0.00,688.000000,,2013-06-14 17:34:00,
2013-06-14 10:43:00,54.0,33.0,-100.00,NE,36,6.0,11.0,45,0.00,,,0.00,688.000000,,2013-06-14 17:43:00,
2013-06-14 10:53:00,54.0,33.0,-100.00,NE,36,6.0,11.0,45,0.00,,,0.00,688.000000,,2013-06-14 17:53:00,
2013-06-14 11:22:00,58.0,29.0,-100.00,NE,46,5.0,11.0,33,0.00,,,0.00,850.000000,,2013-06-14 18:22:00,
2013-06-14 11:32:00,58.0,29.0,-100.00,NE,46,5.0,11.0,33,0.00,,,0.00,850.000000,,2013-06-14 18:32:00,
2013-06-14 11:42:00,58.0,29.0,-100.00,NE,46,5.0,11.0,33,0.00,,,0.00,850.000000,,2013-06-14 18:42:00,
2013-06-14 11:52:00,58.0,29.0,-100.00,NE,46,5.0,11.0,33,0.00,,,0.00,850.000000,,2013-06-14 18:52:00,
2013-06-14 12:32:00,61.0,36.0,-100.00,WSW,240,7.0,13.0,39,0.00,,,0.00,966.000000,,2013-06-14 19:32:00,
2013-06-14 12:43:00,61.0,36.0,-100.00,WSW,240,7.0,13.0,39,0.00,,,0.00,966.000000,,2013-06-14 19:43:00,
2013-06-14 12:53:00,61.0,36.0,-100.00,WSW,240,7.0,13.0,39,0.00,,,0.00,966.000000,,2013-06-14 19:53:00,
2013-06-14 13:22:00,62.0,35.0,-100.00,WSW,254,8.0,12.0,37,0.00,,,0.00,1027.000000,,2013-06-14 20:22:00,
2013-06-14 13:33:00,62.0,35.0,-100.00,WSW,254,8.0,12.0,37,0.00,,,0.00,1027.000000,,2013-06-14 20:33:00,
2013-06-14 13:43:00,62.0,35.0,-100.00,WSW,254,8.0,12.0,37,0.00,,,0.00,1027.000000,,2013-06-14 20:43:00,
2013-06-14 13:53:00,62.0,35.0,-100.00,WSW,254,8.0,12.0,37,0.00,,,0.00,1027.000000,,2013-06-14 20:53:00,
2013-06-14 14:22:00,67.0,36.0,-100.00,West,271,7.0,12.0,32,0.00,,,0.00,1043.000000,,2013-06-14 21:22:00,
2013-06-14 14:34:00,67.0,36.0,-100.00,West,271,7.0,12.0,32,0.00,,,0.00,1043.000000,,2013-06-14 21:34:00,
2013-06-14 14:42:00,67.0,36.0,-100.00,West,271,7.0,12.0,32,0.00,,,0.00,1043.000000,,2013-06-14 21:42:00,
2013-06-14 14:52:00,67.0,36.0,-100.00,West,271,7.0,12.0,32,0.00,,,0.00,1043.000000,,2013-06-14 21:52:00,
2013-06-14 16:33:00,69.0,29.0,-100.00,WSW,252,9.0,16.0,22,-99.99,,,0.00,928.000000,,2013-06-14 23:33:00,
2013-06-14 16:43:00,69.0,29.0,-100.00,WSW,252,9.0,16.0,22,-99.99,,,0.00,928.000000,,2013-06-14 23:43:00,
2013-06-14 16:52:00,69.0,29.0,-100.00,WSW,252,9.0,16.0,22,-99.99,,,0.00,928.000000,,2013-06-14 23:52:00,
2013-06-14 17:22:00,70.0,27.0,-100.00,WSW,251,9.0,14.0,20,0.00,,,0.00,794.000000,,2013-06-15 00:22:00,
2013-06-14 17:33:00,70.0,27.0,-100.00,WSW,251,9.0,14.0,20,0.00,,,0.00,794.000000,,2013-06-15 00:33:00,
2013-06-14 17:43:00,70.0,27.0,-100.00,WSW,251,9.0,14.0,20,0.00,,,0.00,794.000000,,2013-06-15 00:43:00,
2013-06-14 17:52:00,70.0,27.0,-100.00,WSW,251,9.0,14.0,20,0.00,,,0.00,794.000000,,2013-06-15 00:52:00,
2013-06-14 18:22:00,71.0,25.0,-100.00,WSW,254,6.0,15.0,18,0.00,,,0.00,621.000000,,2013-06-15 01:22:00,
2013-06-14 18:33:00,71.0,25.0,-100.00,WSW,254,6.0,15.0,18,0.00,,,0.00,621.000000,,2013-06-15 01:33:00,
2013-06-14 18:43:00,71.0,25.0,-100.00,WSW,254,6.0,15.0,18,0.00,,,0.00,621.000000,,2013-06-15 01:43:00,
2013-06-14 18:54:00,71.0,25.0,-100.00,WSW,254,6.0,15.0,18,0.00,,,0.00,621.000000,,2013-06-15 01:54:00,
2013-06-14 19:33:00,70.0,25.0,-100.00,West,272,6.0,10.0,18,0.00,,,0.00,426.000000,,2013-06-15 02:33:00,
2013-06-14 19:43:00,70.0,25.0,-100.00,West,272,6.0,10.0,18,0.00,,,0.00,426.000000,,2013-06-15 02:43:00,
2013-06-14 19:53:00,70.0,25.0,-100.00,West,272,6.0,10.0,18,0.00,,,0.00,426.000000,,2013-06-15 02:53:00,
2013-06-14 20:23:00,68.0,27.0,-100.00,SW,224,4.0,9.0,21,0.00,,,0.00,226.000000,,2013-06-15 03:23:00,
2013-06-14 20:32:00,68.0,27.0,-100.00,SW,224,4.0,9.0,21,0.00,,,0.00,226.000000,,2013-06-15 03:32:00,
2013-06-14 20:43:00,68.0,27.0,-100.00,SW,224,4.0,9.0,21,0.00,,,0.00,226.000000,,2013-06-15 03:43:00,
2013-06-14 20:52:00,68.0,27.0,-100.00,SW,224,4.0,9.0,21,0.00,,,0.00,226.000000,,2013-06-15 03:52:00,
2013-06-14 21:22:00,60.0,27.0,-100.00,SSW,201,0.0,6.0,28,-99.99,,,0.00,51.000000,,2013-06-15 04:22:00,
2013-06-14 21:34:00,60.0,27.0,-100.00,SSW,201,0.0,6.0,28,-99.99,,,0.00,51.000000,,2013-06-15 04:34:00,
2013-06-14 21:43:00,60.0,27.0,-100.00,SSW,201,0.0,6.0,28,-99.99,,,0.00,51.000000,,2013-06-15 04:43:00,
2013-06-14 21:53:00,60.0,27.0,-100.00,SSW,201,0.0,6.0,28,-99.99,,,0.00,51.000000,,2013-06-15 04:53:00,
2013-06-14 22:22:00,56.0,26.0,-100.00,South,169,1.0,3.0,31,0.00,,,-99.99,1.000000,,2013-06-15 05:22:00,
2013-06-14 22:34:00,56.0,26.0,-100.00,South,169,1.0,3.0,31,0.00,,,-99.99,1.000000,,2013-06-15 05:34:00,
2013-06-14 22:42:00,56.0,26.0,-100.00,South,169,1.0,3.0,31,0.00,,,-99.99,1.000000,,2013-06-15 05:42:00,
2013-06-14 22:52:00,56.0,26.0,-100.00,South,169,1.0,3.0,31,0.00,,,-99.99,1.000000,,2013-06-15 05:52:00,
2013-06-14 23:24:00,51.0,29.0,-100.00,ENE,67,4.0,5.0,43,0.00,,,0.00,1.000000,,2013-06-15 06:24:00,
2013-06-14 23:33:00,51.0,29.0,-100.00,ENE,67,4.0,5.0,43,0.00,,,0.00,1.000000,,2013-06-15 06:33:00,
2013-06-14 23:43:00,51.0,29.0,-100.00,ENE,67,4.0,5.0,43,0.00,,,0.00,1.000000,,2013-06-15 06:43:00,
2013-06-14 23:53:00,51.0,29.0,-100.00,ENE,67,4.0,5.0,43,0.00,,,0.00,1.000000,,2013-06-15 06:53:00,